Location: Cabeza Gorda
(40.0667°N, 4.9667°W)
Time: 04:45:57
(UTC+00:00)

BREEZE-M DEB (TANK) - Pass Details

Date: 15 January 2026
Orbit: 321 x 14414 km, 49.6° (Epoch: 14 February)

Event Time Altitude Azimuth Distance (km) Brightness Sun altitude
Exits shadow 06:08:25 30° 263° (W) 1,237 4.2 -17.3°
Maximum altitude 06:10:07 44° 212° (SSW) 1,194 4.5 -16.9°
Drops below altitude 10° 06:20:05 10° 144° (SE) 5,133 8.7 -15.1°
Sets 06:27:46 0° 141° (SE) 8,114 9.9 -13.7°
